Regional Weather Roundup
Issued by NWS Grand Forks, ND

Home | Current Version | Previous Version | Text Only | Print | Product List | Glossary Off
Versions: 1 2 3 4 5 6 7 8 9 10 11 12 13 14 15 16 17 18 19 20 21 22 23 24 25 26 27 28 29 30 31 32 33 34 35 36 37 38 39 40 41 42 43 44 45 46 47 48 49 50

000
ASUS43 KFGF 051510
RWRFGF
PRAIRIE TO PINES  WEATHER ROUNDUP
NATIONAL WEATHER SERVICE EASTERN NORTH DAKOTA/GRAND FORKS ND
1000 AM CDT THU MAY 05 2016

 **SATELLITE DATA USED TO AUGMENT SKY COVER AT AUTOMATED STATIONS**
 *****  WEATHER ACROSS EASTERN NORTH DAKOTA  *****

CITY           SKY/WX    TMP DP  RH WIND       PRES   REMARKS
GRAND FORKS    SUNNY     79  43  27 W20G25    29.83F
GRAND FRKS AFB SUNNY     77  43  29 W21G31    29.83S
DEVILS LAKE    SUNNY     72  46  39 SW18G24   29.87S
FARGO          SUNNY     68  40  35 S12       29.91S
WAHPETON ARPT  SUNNY     68  36  30 S9        29.94F
$$

 ***** WEATHER ACROSS CENTRAL AND WESTERN NORTH DAKOTA  *****

CITY           SKY/WX    TMP DP  RH WIND       PRES   REMARKS
BISMARCK       SUNNY     73  43  33 SW9       29.92F
MINOT          SUNNY     77  43  29 SW16      29.83F
JAMESTOWN      SUNNY     73  44  35 SW13G23   29.90S
MINOT AFB      SUNNY     76  45  33 SW15      29.82S
GARRISON         N/A     70  43  37 SW12      29.88F
WILLISTON      SUNNY     68  46  45 SW8       29.85F
DICKINSON      SUNNY     68  45  43 S12       29.89S
HETTINGER      SUNNY     64  45  49 S5        29.94F
$$

 *****  OTHER AIRPORT OBSERVATIONS IN OUR AREA  *****

CITY           SKY/WX    TMP DP  RH WIND       PRES   REMARKS
WALHALLA       FAIR      79  46  31 W20G32    29.76F
GRAFTON AIRPOR FAIR      75  48  38 W21G30    29.81F
VALLEY CITY AR FAIR      73  45  35 W21       29.92F
CANDO          FAIR      75  45  33 W21       29.86F
CAVALIER APRT  FAIR      77  46  33 W21G35    29.77S
GWINNER        FAIR      68  45  42 SW16      29.93F
ROLLA          FAIR      72  43  35 SW21G26   29.84S
 ***** THE ABOVE OBSERVATIONS ARE NON NWS ARE NOT QUALITY
       CONTROLLED AND MAY MIS-REPORT RAIN FOR SNOW...
$$

  *****  WEATHER ACROSS NORTHERN MINNESOTA  *****

CITY           SKY/WX    TMP DP  RH WIND       PRES   REMARKS
FLAG ISLAND    SUNNY     57  39  51 S12       29.78F
WARROAD        SUNNY     66  46  48 SW15      29.81S
ROSEAU         SUNNY     70  45  40 SW14      29.80F
HALLOCK        SUNNY     79  43  27 W17       29.78F
THF RVR FALLS  SUNNY     70  39  32 SW15      29.87F
BAUDETTE       SUNNY     68  35  29 SW18G24   29.83F
WASKISH        SUNNY     68  34  28 S9G20     29.87F
CROOKSTON      SUNNY     70  43  37 S15       29.87F
GREENBUSH NDAW   N/A     72  45  37 SW16        N/A
$$
  *****  WEATHER ACROSS CENTRAL AND WEST MINNESOTA  *****

CITY           SKY/WX    TMP DP  RH WIND       PRES   REMARKS
FOSSTON        SUNNY     68  36  30 S18G25    29.90F
BEMIDJI        SUNNY     66  32  27 S13       29.92F
PARK RAPIDS    SUNNY     66  31  27 S14       29.96F
ELBOW LAKE     FAIR      67  37  32 S15       29.99S
WADENA         SUNNY     64  36  34 S14       29.97F
DETROIT LAKES  SUNNY     64  36  34 S12       29.96F
MOORHEAD       SUNNY     66  37  34 S13       29.93S
FERGUS FALLS   SUNNY     68  37  32 S14       29.94F
MORRIS MN      SUNNY     66  37  34 S12       29.99S
STAPLES        SUNNY     63  30  29 S12       29.99F
$$
  *****  WEATHER ELSEWHERE ACROSS MINNESOTA  *****

CITY           SKY/WX    TMP DP  RH WIND       PRES   REMARKS
DULUTH         PTSUNNY   49  36  61 SW12      29.98F
INTRNTL FALLS  SUNNY     63  35  35 SW15G22   29.86F
ELY            SUNNY     57  28  33 SW13G18   29.92F
CLOQUET        CLOUDY    52  32  46 S7        29.99F
WHEATON        SUNNY     72  43  35 S8        29.98S
BRAINERD       PTSUNNY   58  33  39 S8        30.00F
HIBBING        LGT RAIN  50  36  58 CALM      29.95F
ALEXANDRIA     SUNNY     65  31  28 S14       30.02S
SAINT CLOUD    SUNNY     59  29  31 S10       30.03F
MINNEAPOLIS    MOSUNNY   57  30  35 SW8       30.07S
$$

  *****  WEATHER ACROSS SOUTH DAKOTA  *****

CITY           SKY/WX    TMP DP  RH WIND       PRES   REMARKS
SIOUX FALLS    MOSUNNY   63  40  42 SW7       30.05S
BROOKINGS      SUNNY     63  43  48 S6        30.03S
WATERTOWN      SUNNY     66  43  43 SW7       30.01S
HURON          SUNNY     65  46  50 S6        30.00S
SISSETON         N/A     73  41  31 VRB5      29.94S
ABERDEEN       SUNNY     66  43  43 S10       29.97F
MITCHELL       SUNNY     67  45  45 SW7       30.03F
PIERRE         SUNNY     68  49  50 S7        29.96F
MOBRIDGE       SUNNY     66  50  56 SE9       29.92F
RAPID CITY     SUNNY     62  46  55 SE6       29.96S
$$

  *****  SOME WEATHER IN NEARBY STATES *****

CITY           SKY/WX    TMP DP  RH WIND       PRES   REMARKS
GLASGOW MT     SUNNY     65  46  50 S6        29.82S
GREAT FALLS MT CLOUDY    57  42  57 SW8       29.91S
CHEYENNE WY    CLOUDY    64  36  35 W10       30.16S
SCOTTSBLUFF NE CLOUDY    64  45  49 SE6       30.06S
OMAHA NE       MOSUNNY   61  43  51 CALM      30.09S
DES MOINES IA  MOSUNNY   58  32  37 NE3       30.10S
DAVENPORT IA   SUNNY     51  36  56 N10       30.07R
CHICAGO IL     MOSUNNY   52  39  61 N13       30.00R
EAU CLAIRE WI  SUNNY     54  35  48 S5        30.07S
LA CROSSE WI   SUNNY     54  36  50 VRB3      30.09S
$$

  *****  SOME NATIONAL WEATHER *****

CITY           SKY/WX    TMP DP  RH WIND       PRES   REMARKS
LA GUARDIA NY  CLOUDY    51  44  77 NE15      29.70F
RALEIGH NC     PTSUNNY   58  53  84 N9        29.57R THUNDER
ATLANTA GA     MOSUNNY   58  40  51 NW13G28   29.81R
NEW ORLEANS LA SUNNY     74  57  55 N12       29.95S
OKLAHOMA CITY  SUNNY     69  41  36 VRB3      30.13R
ALBUQUERQUE NM MOSUNNY   61  27  27 NW5       30.22S
SALT LAKE CITY CLOUDY    67  36  31 E9        29.93S
LOS ANGELES CA CLOUDY    60  52  74 SW5       29.92R
BOISE ID       CLOUDY    58  45  62 CALM      29.87F
SEATTLE WA     PTSUNNY   55  45  68 N7        30.05R
$$

*** WEATHER ACROSS MANITOBA...SASKATCHEWAN AND ONTARIO ***
                ***ONTARIO***

CITY           SKY/WX    TMP DP  RH WIND       PRES   REMARKS
GERALDTON      PTSUNNY   52  34  50 SW12G20   29.88F
THUNDER BAY    PTSUNNY   52  34  50 E7        29.93F
SIOUX LOOKOUT  PTSUNNY   61  37  41 SW8G17    29.78F
TORONTO        PTSUNNY   55  45  67 NE7       29.84R
BIG TROUT LK   SUNNY     55  34  44 W6        29.64F
PICKLE LAKE    MOSUNNY   59  36  41 SW12G17   29.72F
DRYDEN         SUNNY     64  36  34 SW17G26   29.78F
KENORA         MOSUNNY   63  36  36 SW18G29   29.77F
$$
                *** MANITOBA***

CITY           SKY/WX    TMP DP  RH WIND       PRES   REMARKS
BRANDON        CLOUDY    73  45  35 W14       29.77F
DAUPHIN        SUNNY     81  39  22 W13       29.69F
ISLAND LAKE    MOSUNNY   55  37  50 W2        29.65S
PILOT MOUND    NOT AVBL
THE PAS        MOSUNNY   64  39  39 NW5       29.58R
THOMPSON       PTSUNNY   43  30  61 NE16G28   29.69F
WINNIPEG       MOSUNNY   79  45  29 W14G20    29.71F
LYNN LAKE      CLOUDY    43  30  61 E10G18    29.71R
CHURCHILL      PTSUNNY   25  18  74 NE13G20   29.95R WCI  13
GILLAM         CLOUDY    34  19  55 NE16G23   29.82R WCI  23
$$
                ***SASKATCHEWAN***

CITY           SKY/WX    TMP DP  RH WIND       PRES   REMARKS
ESTEVAN        NOT AVBL
KINDERSLEY     PTSUNNY   61  43  51 W12       29.76R
LLOYDMINSTER   CLOUDY    57  37  47 N13G21    29.84R
PRINCE ALBERT  CLOUDY    63  45  51 W8        29.71S SMOKE
REGINA         PTSUNNY   72  41  33 S6        29.77F
YORKTON        SUNNY     73  41  31 SW6       29.73F
N. BATTLEFORD  SUNNY     68  39  34 NE13G23   29.75S HAZE
LA RONGE       CLOUDY    63  37  39 NW13      29.71R
SASKATOON      MOSUNNY   72  41  33 NE7       29.73S
SWIFT CURRENT  SUNNY     72  39  30 W15       29.79S
$$
NOTE: THESE ARE AUTOMATED STATIONS WITH LIMITED QUALITY CONTROL
      "FAIR" INDICATES FEW OR NO CLOUDS BELOW 12,000 FEET WITH NO
      SIGNIFICANT WEATHER AND/OR OBSTRUCTIONS TO VISIBILITY.
      SKY/WX - SKY CONDITION AND SIGNIFICANT WEATHER.
      TMP - AIR TEMPERATURE.    DP   - DEWPOINT TEMPERATURE.
      RH  - RELATIVE HUMIDITY.  PRES - PRESSURE.
      HX  - HEAT INDEX.         WCI  - WIND CHILL INDEX.
$




USA.gov is the U.S. government's official web portal to all federal, state and local government web resources and services.